Flag for United Kingdom Weather past 2 weeks in Portsmouth, England, United Kingdom

50 °F

Scattered clouds.

Feels Like: 48 °F
Forecast: 45 / 51 °F
Wind: 5 mph from Northwest

Location: Southampton / Weather Centre

Current Time: Nov 26, 2015 at 1:10:17 PM

Latest Report: Nov 26, 2015 at 12:20 PM

Visibility: 6 mi

Pressure: 30.15 "Hg

Humidity: 76%

Dew point: 43 °F

Location of PortsmouthLocation

Historic Weather in Portsmouth — Graph


Portsmouth temperature yesterday

Maximum temperature yesterday: 52 °F (at 11:50 AM)
Minimum temperature yesterday: 46 °F (at 5:50 AM)
Average temperature yesterday: 48 °F

Past Weeks' High & Low Weather Summary

High59 °F (Nov 17, 1:50 PM)100% (Nov 12, 7:20 AM)30.33 "Hg (Nov 12, 7:20 AM)
Low27 °F (Nov 22, 7:20 AM)42% (Nov 21, 1:20 PM)29.59 "Hg (Nov 17, 1:50 PM)
Average49 °F81%29.97 "Hg
* Reported Nov 11 11:20 AM — Nov 26 11:50 AM, Portsmouth, Weather by CustomWeather, © 2015

Note: Actual official high and low records may vary slightly from our data, if they occured in-between our weather recording intervals... More about our weather records


Portsmouth weather history for previous 24 hours

Time TempWeatherWind HumidityBarometerVisibility
11:50 AM
Thu, Nov 26
50 °FScattered clouds.3 mph82%30.15 "Hg6 mi
11:20 AM50 °FScattered clouds.5 mph82%30.15 "HgN/A
10:50 AM50 °FScattered clouds.3 mph82%30.15 "HgN/A
10:20 AM50 °FScattered clouds.6 mph76%30.15 "HgN/A
9:50 AM48 °FScattered clouds.2 mph82%30.12 "HgN/A
9:20 AM48 °FScattered clouds.2 mph82%30.15 "HgN/A
8:50 AM46 °FPartly sunny.3 mph87%30.12 "HgN/A
8:20 AM46 °FPartly sunny.No wind87%30.12 "HgN/A
7:50 AM46 °FPartly sunny.No wind87%30.12 "HgN/A
7:20 AM46 °FPassing clouds.1 mph87%30.12 "HgN/A
6:20 AM45 °FPassing clouds.No wind93%30.09 "HgN/A
5:50 AM45 °FPassing clouds.No wind93%30.09 "HgN/A
9:50 PM
Wed, Nov 25
48 °FPassing clouds.7 mph87%30.04 "HgN/A
9:20 PM48 °FRain showers. Passing clouds.12 mph87%30.04 "Hg5 mi
8:50 PM46 °FRain showers. Passing clouds.10 mph93%30.04 "Hg5 mi
8:20 PM48 °FRain showers. Passing clouds.10 mph87%30.01 "Hg5 mi
7:50 PM48 °FPassing clouds.12 mph87%30.01 "HgN/A
7:20 PM48 °FPassing clouds.10 mph82%30.01 "HgN/A
6:50 PM48 °FPassing clouds.12 mph82%29.98 "HgN/A
6:20 PM48 °FPassing clouds.8 mph82%29.98 "HgN/A
5:50 PM48 °FPassing clouds.10 mph82%29.95 "HgN/A
5:20 PM48 °FPassing clouds.12 mph82%29.95 "HgN/A
4:50 PM48 °FScattered showers. Passing clouds.9 mph82%29.95 "HgN/A
4:20 PM48 °FScattered showers. Passing clouds.12 mph82%29.95 "HgN/A
3:50 PM48 °FPartly sunny.10 mph82%29.92 "HgN/A
3:20 PM48 °FScattered clouds.10 mph82%29.92 "HgN/A
2:50 PM48 °FSprinkles. Broken clouds.15 mph87%29.92 "HgN/A
2:20 PM48 °FScattered showers. Broken clouds.12 mph82%29.92 "HgN/A
1:50 PM50 °FScattered showers. Broken clouds.8 mph82%29.92 "HgN/A
1:20 PM48 °FScattered showers. Broken clouds.12 mph87%29.92 "HgN/A
Weather by CustomWeather, © 2015

See weather overviewHow to use our weather pages